{"data":{"norad_id":67870,"intl_designator":"2026-034W","name":"STARLINK-36770","alt_names":[],"object_type":"PAYLOAD","status":"ACTIVE","operator":null,"country":"US","launch_date":"2026-02-20","launch_site_code":"AFETR","launch_vehicle":null,"mission":null,"orbit_class":"UNKNOWN","rcs_meters":null,"size_class":null,"mass_kg":null,"dimensions":null,"purposes":["comms"],"wikipedia_slug":null,"has_3d_model":false,"image_url":null,"decayed_at":null,"tle_current":{"epoch":"2026-05-24T21:18:55.074816Z","epoch_age_seconds":87992,"freshness":"FRESH","line1":"1 67870U 26034W   26144.88813744  .00015339  00000+0  52873-3 0  9991","line2":"2 67870  53.1574 210.1883 0001158  90.1783 269.9350 15.30213394 15709","mean_motion":15.30213394,"eccentricity":0.0001158,"inclination_deg":53.1574,"raan_deg":210.1883,"arg_perigee_deg":90.1783,"mean_anomaly_deg":269.935,"bstar":0.00052873,"rev_number":1570,"period_min":94.10452199976,"perigee_km":474.38146410273,"apogee_km":475.96869117991,"semimajor_km":6853.3120776413,"source":"CELESTRAK","updated_at":"2026-05-25T13:38:21.729116Z"}}}